Location: Zapote
(9.9191°N, 84.0597°W)
Time: 06:42:54
(UTC-06:00)

Vanguard 3 - All Passes

Search period start: 07 March 2021 00:00
Search period end: 17 March 2021 00:00
Orbit: 508 x 3262 km, 33.4° (Epoch: 06 March)

Date Brightness Start Highest point End Pass type
(mag) Time Alt. Az. Time Alt. Az. Time Alt. Az.
07 Mar - 07:50:48 10° S 07:58:56 20° SE 08:09:39 10° E daylight
07 Mar - 09:59:18 10° SW 10:13:27 66° SE 10:33:10 10° ENE daylight
07 Mar - 12:13:15 10° WSW 12:30:48 62° NNW 12:50:01 10° NE daylight
07 Mar - 14:33:23 10° WNW 14:50:39 35° NNW 15:05:01 10° NE daylight
07 Mar - 16:57:00 10° NW 17:10:48 28° N 17:20:21 10° NE daylight
07 Mar - 19:16:14 10° NW 19:28:04 41° NNE 19:34:57 10° E visible
07 Mar - 21:32:53 10° WNW 21:41:16 54° SW 21:46:11 10° SE visible
08 Mar - 08:45:50 10° SSW 08:57:18 42° SE 09:14:10 10° ENE daylight
08 Mar - 10:57:17 10° WSW 11:12:56 82° NW 11:33:18 10° NE daylight
08 Mar - 13:14:12 10° W 13:31:54 44° NNW 13:49:06 10° NE daylight
08 Mar - 15:36:50 10° WNW 15:52:38 29° N 16:04:38 10° NE daylight
08 Mar - 17:58:21 10° NW 18:11:47 33° NNE 18:20:14 10° ENE visible
08 Mar - 20:15:47 10° NW 20:27:03 77° NNE 20:33:10 10° ESE visible
08 Mar - 22:34:21 10° W 22:38:16 16° SW 22:41:20 10° S night (unlit)
09 Mar - 07:33:51 10° S 07:41:55 22° SE 07:53:03 10° E daylight
09 Mar - 09:42:39 10° SW 09:55:55 73° SE 10:15:39 10° ENE daylight
09 Mar - 11:56:42 10° WSW 12:13:22 57° NNW 12:32:43 10° NE daylight
09 Mar - 14:16:44 10° WNW 14:33:47 34° NNW 14:48:34 10° NE daylight
09 Mar - 16:39:26 10° NW 16:54:25 30° N 17:04:47 10° ENE daylight
09 Mar - 18:58:24 10° NW 19:11:47 51° NNE 19:19:20 10° E visible
09 Mar - 21:15:52 10° WNW 21:24:47 44° SW 21:30:04 10° SSE visible
10 Mar - 08:29:11 10° SSW 08:39:58 46° SE 08:56:48 10° ENE daylight
10 Mar - 10:40:47 10° WSW 10:55:28 75° NNW 11:15:44 10° NE daylight
10 Mar - 12:57:45 10° W 13:14:46 41° NNW 13:32:09 10° NE daylight
10 Mar - 15:19:47 10° WNW 15:36:03 30° N 15:48:43 10° NE daylight
10 Mar - 17:40:28 10° NW 17:55:25 39° NNE 18:04:40 10° E daylight
10 Mar - 19:58:13 10° WNW 20:10:37 88° SW 20:17:16 10° SE visible
10 Mar - 22:18:26 10° WSW 22:21:46 13° SW 22:24:30 10° SSW visible
11 Mar - 07:17:02 10° S 07:24:54 25° SE 07:36:16 10° E daylight
11 Mar - 09:26:09 10° SW 09:38:32 80° SE 09:57:59 10° ENE daylight
11 Mar - 11:40:20 10° W 11:56:06 52° NNW 12:15:20 10° NE daylight
11 Mar - 14:00:08 10° WNW 14:16:58 33° N 14:32:07 10° NE daylight
11 Mar - 16:21:50 10° NW 16:37:57 34° N 16:49:09 10° ENE daylight
11 Mar - 18:40:32 10° NW 18:55:21 61° NNE 19:03:35 10° ESE visible
11 Mar - 20:58:50 10° WNW 21:08:12 37° SW 21:13:51 10° SSE visible
12 Mar - 08:12:39 10° SSW 08:22:43 52° SE 08:39:18 10° ENE daylight
12 Mar - 10:24:26 10° WSW 10:38:10 67° NNW 10:58:03 10° NE daylight
12 Mar - 12:41:26 10° WNW 12:57:44 38° NNW 13:15:10 10° NE daylight
12 Mar - 15:02:41 10° NW 15:19:25 32° N 15:32:46 10° ENE daylight
12 Mar - 17:22:34 10° NW 17:38:55 45° NNE 17:48:59 10° E daylight
12 Mar - 19:40:38 10° WNW 19:54:01 75° SW 20:01:15 10° SE visible
12 Mar - 22:02:52 10° WSW 22:05:13 11° SW 22:07:17 10° SSW visible
13 Mar - 07:00:23 10° S 07:07:54 28° SE 07:19:18 10° E daylight
13 Mar - 09:09:48 10° SW 09:21:17 89° SE 09:40:13 10° NE daylight
13 Mar - 11:24:08 10° W 11:38:57 47° NNW 11:57:53 10° NE daylight
13 Mar - 13:43:34 10° WNW 14:00:10 33° N 14:15:42 10° NE daylight
13 Mar - 16:04:12 10° NW 16:21:21 38° NNE 16:33:25 10° ENE daylight
13 Mar - 18:22:39 10° NW 18:38:45 71° NNE 18:47:41 10° ESE visible
13 Mar - 20:41:48 10° WNW 20:51:31 32° SW 20:57:32 10° SSE visible
14 Mar - 05:52:06 10° SE 05:53:34 10° SE 05:55:07 10° ESE daylight
14 Mar - 07:56:15 10° SW 08:05:36 59° SE 08:21:43 10° ENE daylight
14 Mar - 10:08:14 10° WSW 10:21:01 60° NNW 10:40:17 10° NE daylight
14 Mar - 12:25:13 10° WNW 12:40:49 36° NNW 12:58:10 10° NE daylight
14 Mar - 14:45:35 10° NW 15:02:43 34° N 15:16:48 10° ENE daylight
14 Mar - 17:04:39 10° NW 17:22:15 52° NNE 17:33:10 10° E daylight
14 Mar - 19:23:01 10° WNW 19:37:16 65° SW 19:45:08 10° SE visible
15 Mar - 06:43:50 10° SSW 06:50:58 31° SE 07:02:15 10° ENE daylight
15 Mar - 08:53:35 10° WSW 09:04:12 82° NNW 09:22:23 10° NE daylight
15 Mar - 11:08:04 10° W 11:21:58 43° NNW 11:40:23 10° NE daylight
15 Mar - 13:27:03 10° WNW 13:43:23 33° N 13:59:17 10° ENE daylight
15 Mar - 15:46:34 10° NW 16:04:37 42° NNE 16:17:35 10° E daylight
15 Mar - 18:04:45 10° NW 18:21:57 82° NNE 18:31:40 10° ESE visible
15 Mar - 20:24:48 10° W 20:34:45 28° SW 20:41:07 10° S visible
16 Mar - 05:34:06 10° SSE 05:36:54 12° SE 05:40:11 10° ESE daylight
16 Mar - 07:39:58 10° SW 07:48:36 67° SE 08:04:04 10° ENE daylight
16 Mar - 09:52:12 10° W 10:04:04 53° NNW 10:22:28 10° NE daylight
16 Mar - 12:09:05 10° WNW 12:23:58 34° N 12:41:09 10° NE daylight
16 Mar - 14:28:27 10° NW 14:45:57 36° N 15:00:47 10° ENE daylight
16 Mar - 16:46:46 10° NW 17:05:25 59° NNE 17:17:13 10° ESE daylight
16 Mar - 19:05:26 10° WNW 19:20:23 56° SW 19:28:54 10° SE visible
